Starlink 11534

operational
NORAD ID: 62555 Int'l Des: 2025-006 Owner: SPXS Country: US Constellation: starlink
LEOCIRCULAR

关于 Starlink 11534

正在加载描述...

实时位置

正在加载3D地球...

即将过境

高度历史

Altitude vs Time

uPlot chart will show altitude changes over time

两行轨道根数

1 62555U 25006B 26033.00709238 .00134741 00000-0 10362-2 0 9993
2 62555 42.9986 354.6942 0001090 286.4868 73.5879 15.70850470 60998
Epoch: Feb 2, 2026 • Age: 27 hours

当前状态

高度 361.3 km
速度 7.69 km/s
星下点 -24.26°S, 17.94°E
发射日期 Jan 10, 2025
运行时间 1 years
类型 internet

技术详情

分类 Payload
质量 960.00 kg
干质量 910.00 kg
总质量 960.00 kg
长度 0.30 m
直径 4.10 m
跨度 29.00 m
形状 Box + pan
制造商 SPXS
平台类型 Starlink V2MD
阶段状态 In Orbit
所有者/国家 SPXS/US

大型星座

Loading constellations...